Year,Month,Day,Hour,Minute,Value (Times are PST for temperature in C)
2004,11,21,09,51,7.10
2004,11,21,09,52,7.10
2004,11,21,09,53,7.10
2004,11,21,09,54,7.00
2004,11,21,09,55,7.00
2004,11,21,09,56,7.00
2004,11,21,09,57,7.00
2004,11,21,09,58,7.00
2004,11,21,09,59,7.00
2004,11,21,10,00,7.00
2004,11,21,10,01,7.00
2004,11,21,10,02,7.00
2004,11,21,10,03,7.00
2004,11,21,10,04,6.90
2004,11,21,10,05,7.00
2004,11,21,10,06,6.90
2004,11,21,10,07,6.90
2004,11,21,10,08,6.90
2004,11,21,10,09,7.00
2004,11,21,10,10,7.10
2004,11,21,10,11,7.20
2004,11,21,10,12,7.30
2004,11,21,10,13,7.30
2004,11,21,10,14,7.40
2004,11,21,10,15,7.40
2004,11,21,10,16,7.40
2004,11,21,10,17,7.60
2004,11,21,10,18,7.60
2004,11,21,10,19,7.50
2004,11,21,10,20,7.50
2004,11,21,10,21,7.40
2004,11,21,10,22,7.40
2004,11,21,10,23,7.40
2004,11,21,10,24,7.50
2004,11,21,10,25,7.50
2004,11,21,10,26,7.50
2004,11,21,10,27,7.50
2004,11,21,10,28,7.50
2004,11,21,10,29,7.70
2004,11,21,10,30,7.70
2004,11,21,10,31,7.70
2004,11,21,10,32,7.60
2004,11,21,10,33,7.60
2004,11,21,10,34,7.60
2004,11,21,10,35,7.70
2004,11,21,10,36,7.80
2004,11,21,10,37,7.80
2004,11,21,10,38,7.90
2004,11,21,10,39,7.90
2004,11,21,10,40,8.00
2004,11,21,10,41,8.00
2004,11,21,10,42,8.00
2004,11,21,10,43,8.00
2004,11,21,10,44,8.00
2004,11,21,10,45,8.10
2004,11,21,10,46,8.10
2004,11,21,10,47,8.20
2004,11,21,10,48,8.20
2004,11,21,10,49,8.30
2004,11,21,10,50,8.40
2004,11,21,10,51,8.40
2004,11,21,10,52,8.40
2004,11,21,10,53,8.30
2004,11,21,10,54,8.20
2004,11,21,10,55,8.00
2004,11,21,10,56,8.00
2004,11,21,10,57,7.90
2004,11,21,10,58,8.00
2004,11,21,10,59,8.00
2004,11,21,11,00,7.90
2004,11,21,11,01,7.90
2004,11,21,11,02,7.80
2004,11,21,11,03,7.80
2004,11,21,11,04,7.70
2004,11,21,11,05,7.80
2004,11,21,11,06,7.80
2004,11,21,11,07,7.90
2004,11,21,11,08,7.90
2004,11,21,11,09,7.90
2004,11,21,11,10,7.80
2004,11,21,11,11,7.70
2004,11,21,11,12,7.60
2004,11,21,11,13,7.50
2004,11,21,11,14,7.50
2004,11,21,11,15,7.50
2004,11,21,11,16,7.50
2004,11,21,11,17,7.50
2004,11,21,11,18,7.60
2004,11,21,11,19,7.70
2004,11,21,11,20,7.70
2004,11,21,11,21,7.70
2004,11,21,11,22,7.60
2004,11,21,11,23,7.60
2004,11,21,11,24,7.60
2004,11,21,11,25,7.50
2004,11,21,11,26,7.50
2004,11,21,11,27,7.50
2004,11,21,11,28,7.40
2004,11,21,11,29,7.40
2004,11,21,11,30,7.50
2004,11,21,11,31,7.50
2004,11,21,11,32,7.60
2004,11,21,11,33,7.70
2004,11,21,11,34,7.80
2004,11,21,11,35,7.80
2004,11,21,11,36,7.80
2004,11,21,11,37,7.80
2004,11,21,11,38,7.70
2004,11,21,11,39,7.70
2004,11,21,11,40,7.60
2004,11,21,11,41,7.60
2004,11,21,11,42,7.60
2004,11,21,11,43,7.60
2004,11,21,11,44,7.60
2004,11,21,11,45,7.60
2004,11,21,11,46,7.50
2004,11,21,11,47,7.50
2004,11,21,11,48,7.50
2004,11,21,11,49,7.40
2004,11,21,11,50,7.50
2004,11,21,11,51,7.50
2004,11,21,11,52,7.60
2004,11,21,11,53,7.60
2004,11,21,11,54,7.60
2004,11,21,11,55,7.60
2004,11,21,11,56,7.60
2004,11,21,11,57,7.60
2004,11,21,11,58,7.90
2004,11,21,11,59,8.10
2004,11,21,12,00,8.10
2004,11,21,12,01,8.10
2004,11,21,12,02,8.10
2004,11,21,12,03,8.10
2004,11,21,12,04,8.10
2004,11,21,12,05,8.00
2004,11,21,12,06,8.00
2004,11,21,12,07,8.00
2004,11,21,12,08,8.00
2004,11,21,12,09,7.90
2004,11,21,12,10,7.90
2004,11,21,12,11,7.90
2004,11,21,12,12,7.90
2004,11,21,12,13,7.90
2004,11,21,12,14,7.90
2004,11,21,12,15,7.90
2004,11,21,12,16,7.90
2004,11,21,12,17,7.90
2004,11,21,12,18,7.90
2004,11,21,12,19,8.00
2004,11,21,12,20,8.00
2004,11,21,12,21,8.00
2004,11,21,12,22,8.00
2004,11,21,12,23,8.00
2004,11,21,12,24,8.10
2004,11,21,12,25,8.10
2004,11,21,12,26,8.10
2004,11,21,12,27,8.10
2004,11,21,12,28,8.10
2004,11,21,12,29,8.10
2004,11,21,12,30,8.20
2004,11,21,12,31,8.20
2004,11,21,12,32,8.20
2004,11,21,12,33,8.30
2004,11,21,12,34,8.30
2004,11,21,12,35,8.30
2004,11,21,12,36,8.30
2004,11,21,12,37,8.30
2004,11,21,12,38,8.30
2004,11,21,12,39,8.30
2004,11,21,12,40,8.30
2004,11,21,12,41,8.30
2004,11,21,12,42,8.30
2004,11,21,12,43,8.30
2004,11,21,12,44,8.30
2004,11,21,12,45,8.30
2004,11,21,12,46,8.30
2004,11,21,12,47,8.20
2004,11,21,12,48,8.20
2004,11,21,12,49,8.20
2004,11,21,12,50,8.30
2004,11,21,12,51,8.20
2004,11,21,12,52,8.20
2004,11,21,12,53,8.20
2004,11,21,12,54,8.20
2004,11,21,12,55,8.30
2004,11,21,12,56,8.20
2004,11,21,12,57,8.20
2004,11,21,12,58,8.20
2004,11,21,12,59,8.20
2004,11,21,13,00,8.00
2004,11,21,13,01,8.00
2004,11,21,13,02,8.00
2004,11,21,13,03,8.00
2004,11,21,13,04,8.00
2004,11,21,13,05,8.00
2004,11,21,13,06,8.00
2004,11,21,13,07,8.00
2004,11,21,13,08,8.00
2004,11,21,13,09,8.00
2004,11,21,13,10,8.00
2004,11,21,13,11,8.00
2004,11,21,13,12,8.00
2004,11,21,13,13,8.00
2004,11,21,13,14,8.00
2004,11,21,13,15,8.00
2004,11,21,13,16,8.00
2004,11,21,13,17,8.00
2004,11,21,13,18,8.20
2004,11,21,13,19,8.20
2004,11,21,13,20,8.20
2004,11,21,13,21,8.30
2004,11,21,13,22,8.30
2004,11,21,13,23,8.50
2004,11,21,13,24,8.50
2004,11,21,13,25,8.40
2004,11,21,13,26,8.40
2004,11,21,13,27,8.40
2004,11,21,13,28,8.40
2004,11,21,13,29,8.40
2004,11,21,13,30,8.40
2004,11,21,13,31,8.40
2004,11,21,13,32,8.20
2004,11,21,13,33,7.90
2004,11,21,13,34,7.90
2004,11,21,13,35,7.90
2004,11,21,13,36,7.80
2004,11,21,13,37,7.80
2004,11,21,13,38,7.90
2004,11,21,13,39,8.00
2004,11,21,13,40,8.00
2004,11,21,13,41,8.00
2004,11,21,13,42,8.20
2004,11,21,13,43,8.20
2004,11,21,13,44,8.30
2004,11,21,13,45,8.30
2004,11,21,13,46,8.20
2004,11,21,13,47,8.20
2004,11,21,13,48,8.20
2004,11,21,13,49,8.20
2004,11,21,13,50,8.20
2004,11,21,13,51,8.20
2004,11,21,13,52,8.30
2004,11,21,13,53,8.30
2004,11,21,13,54,8.30
2004,11,21,13,55,8.30
2004,11,21,13,56,8.20
2004,11,21,13,57,8.30
2004,11,21,13,58,8.40
2004,11,21,13,59,8.40
2004,11,21,14,00,8.30
2004,11,21,14,01,8.20
2004,11,21,14,02,8.20
2004,11,21,14,03,8.20
2004,11,21,14,04,8.20
2004,11,21,14,05,8.20
2004,11,21,14,06,8.20
2004,11,21,14,07,8.20
2004,11,21,14,08,8.20
2004,11,21,14,09,8.20
2004,11,21,14,10,8.20
2004,11,21,14,11,8.20
2004,11,21,15,37,7.50
2004,11,21,15,38,7.50
2004,11,21,15,39,7.50
2004,11,21,15,40,7.50
2004,11,21,15,41,7.50
2004,11,21,15,42,7.50
2004,11,21,15,43,7.50
2004,11,21,15,44,7.50
2004,11,21,15,45,7.50
2004,11,21,15,46,7.50
2004,11,21,15,47,7.50
2004,11,21,15,48,7.50
2004,11,21,15,49,7.60
2004,11,21,15,50,7.60
2004,11,21,15,51,7.60
2004,11,21,15,52,7.60
2004,11,21,15,53,7.60
2004,11,21,15,54,7.60
2004,11,21,15,55,7.60
2004,11,21,15,56,7.60
2004,11,21,15,57,7.60
2004,11,21,15,58,7.60
2004,11,21,15,59,7.50
2004,11,21,16,00,7.50
2004,11,21,16,01,7.50
2004,11,21,16,02,7.50
2004,11,21,16,03,7.50
2004,11,21,16,04,7.50
2004,11,21,16,05,7.50
2004,11,21,16,06,7.50
2004,11,21,16,07,7.50
2004,11,21,16,08,7.50
2004,11,21,16,09,7.50
2004,11,21,16,10,7.50
2004,11,21,16,11,7.50
2004,11,21,16,12,7.50
2004,11,21,16,13,7.50
2004,11,21,16,14,7.50
2004,11,21,16,15,7.50
2004,11,21,16,16,7.50
2004,11,21,16,17,7.50
2004,11,21,16,18,7.50
2004,11,21,16,19,7.50
2004,11,21,16,20,7.50
2004,11,21,16,21,7.50
2004,11,21,16,22,7.50
2004,11,21,16,23,7.50
2004,11,21,16,24,7.40
2004,11,21,16,25,7.40
2004,11,21,16,26,7.40
2004,11,21,16,27,7.40
2004,11,21,16,28,7.40
2004,11,21,16,29,7.40
2004,11,21,16,30,7.40
2004,11,21,16,31,7.40
2004,11,21,16,32,7.40
2004,11,21,16,33,7.40
2004,11,21,16,34,7.40
2004,11,21,16,35,7.40
2004,11,21,16,36,7.40
2004,11,21,16,37,7.40
2004,11,21,16,38,7.40
2004,11,21,16,39,7.40
2004,11,21,16,40,7.40
2004,11,21,16,41,7.40
2004,11,21,16,42,7.50
2004,11,21,16,43,7.50
2004,11,21,16,44,7.50
2004,11,21,16,45,7.50
2004,11,21,16,46,7.50
2004,11,21,16,47,7.50
2004,11,21,16,48,7.50
2004,11,21,16,49,7.50
2004,11,21,16,50,7.50
2004,11,21,16,51,7.50
2004,11,21,16,52,7.50
2004,11,21,16,53,7.50
2004,11,21,16,54,7.50
2004,11,21,16,55,7.50
2004,11,21,16,56,7.50
2004,11,21,16,57,7.50
2004,11,21,16,58,7.50
2004,11,21,16,59,7.50
2004,11,21,17,14,7.70
2004,11,21,17,15,7.70
2004,11,21,17,16,7.70
2004,11,21,17,17,7.70
2004,11,21,17,18,7.70
2004,11,21,17,19,7.70
2004,11,21,17,20,7.70
2004,11,21,17,21,7.70
2004,11,21,17,22,7.80
2004,11,21,17,23,7.80
2004,11,21,17,24,7.80
2004,11,21,17,25,7.80
2004,11,21,17,26,7.80
2004,11,21,17,27,7.90
2004,11,21,17,28,7.80
2004,11,21,17,29,7.90
2004,11,21,17,30,7.90
2004,11,21,17,31,7.90
2004,11,21,17,32,7.90
2004,11,21,17,33,8.00
2004,11,21,17,34,8.00
2004,11,21,17,35,8.00
2004,11,21,17,36,8.00
2004,11,21,17,37,8.00
2004,11,21,17,38,8.00
2004,11,21,17,39,8.10
2004,11,21,17,40,8.10
2004,11,21,17,41,8.10
2004,11,21,17,42,8.20
2004,11,21,17,43,8.20
2004,11,21,17,44,8.10
2004,11,21,17,45,8.10
2004,11,21,17,46,8.00
2004,11,21,17,47,8.10
2004,11,21,17,48,8.00
2004,11,21,17,49,8.00
2004,11,21,17,50,8.00
2004,11,21,17,51,8.00
2004,11,21,17,52,8.00
2004,11,21,17,53,8.00
2004,11,21,17,54,8.00
2004,11,21,17,55,7.90
2004,11,21,17,56,7.90
2004,11,21,17,57,7.90
2004,11,21,17,58,7.90
2004,11,21,17,59,7.90
2004,11,21,18,00,7.90
2004,11,21,18,01,8.00
2004,11,21,18,02,7.90
2004,11,21,18,03,7.90
2004,11,21,18,04,7.90
2004,11,21,18,05,7.90
2004,11,21,18,06,7.80
2004,11,21,18,07,7.80
2004,11,21,18,08,7.80
2004,11,21,18,09,7.80
2004,11,21,18,10,7.80
2004,11,21,18,11,7.80
2004,11,21,18,12,7.90
2004,11,21,18,13,7.90
2004,11,21,18,14,7.90
2004,11,21,18,15,7.90
2004,11,21,18,16,7.80
2004,11,21,18,17,7.80
2004,11,21,18,18,7.80
2004,11,21,18,19,7.80
2004,11,21,18,20,7.80
2004,11,21,18,21,7.90
2004,11,21,18,22,7.90
2004,11,21,18,23,7.80
2004,11,21,18,24,7.80
2004,11,21,18,25,7.80
2004,11,21,18,26,7.70
2004,11,21,18,27,7.60
2004,11,21,18,28,7.60
2004,11,21,18,29,7.50
2004,11,21,18,30,7.50
2004,11,21,18,31,7.50
2004,11,21,18,32,7.40
2004,11,21,18,33,7.40
2004,11,21,18,34,7.40
2004,11,21,18,35,7.40
2004,11,21,18,36,7.40
2004,11,21,18,37,7.50
2004,11,21,18,38,7.50
2004,11,21,18,39,7.50
2004,11,21,18,40,7.60
2004,11,21,18,41,7.70
2004,11,21,18,42,7.60
2004,11,21,18,43,7.60
2004,11,21,18,44,7.60
2004,11,21,18,45,7.60
2004,11,21,18,46,7.70
2004,11,21,18,47,7.70
2004,11,21,18,48,7.70
2004,11,21,18,49,7.70
2004,11,21,18,50,7.70
2004,11,21,18,51,7.70
2004,11,21,18,52,7.60
2004,11,21,18,53,7.60
2004,11,21,18,54,7.60
2004,11,21,18,55,7.70
2004,11,21,18,56,7.70
2004,11,21,18,57,7.70
2004,11,21,18,58,7.70
2004,11,21,18,59,7.70
2004,11,21,19,00,7.70
2004,11,21,19,01,7.70
2004,11,21,19,02,7.70
2004,11,21,19,03,7.70
2004,11,21,19,04,7.70
2004,11,21,19,05,7.70
2004,11,21,19,06,7.70
2004,11,21,19,07,7.70
2004,11,21,19,08,7.70
2004,11,21,19,09,7.60
2004,11,21,19,10,7.60
2004,11,21,19,11,7.70
2004,11,21,19,12,7.70
2004,11,21,19,13,7.80
2004,11,21,19,14,7.70
2004,11,21,19,15,7.70
2004,11,21,19,16,7.70
2004,11,21,19,17,7.70
2004,11,21,19,18,7.70
2004,11,21,19,19,7.70
2004,11,21,19,20,7.80
2004,11,21,19,21,7.80
2004,11,21,19,22,7.80
2004,11,21,19,23,7.80
2004,11,21,19,24,7.80
2004,11,21,19,25,7.70
2004,11,21,19,26,7.70
2004,11,21,19,27,7.70
2004,11,21,19,28,7.70
2004,11,21,19,29,7.70
2004,11,21,19,30,7.70
2004,11,21,19,31,7.70
2004,11,21,19,32,7.70
2004,11,21,19,33,7.80
2004,11,21,19,34,7.80
2004,11,21,19,35,7.80
2004,11,21,19,36,7.80
2004,11,21,19,37,7.80
2004,11,21,19,38,7.80
2004,11,21,19,39,7.80
2004,11,21,19,40,7.80
2004,11,21,19,41,7.80
2004,11,21,19,42,7.80
2004,11,21,19,43,7.80
2004,11,21,19,44,7.80
2004,11,21,19,45,7.80
2004,11,21,19,46,7.80
2004,11,21,19,47,7.80
2004,11,21,19,48,7.80
2004,11,21,19,49,7.80
2004,11,21,19,50,7.80
2004,11,21,19,51,7.80
2004,11,21,19,52,7.80
2004,11,21,19,53,7.80
2004,11,21,19,54,7.80
2004,11,21,19,55,7.80
